Station Historical Data
Daily Summary for February 28, 2012 Units:  Metric    English   Both
« Previous Day
Next Day »
Daily Weekly Monthly Yearly Custom
  High: Low: Average:
Temperature: 20.6 °C 7.6 °C 14.2 °C
Dew Point: 14.8 °C 3.2 °C 8.8 °C
Humidity: 95% 55% 71%
Wind Speed: 27.4km/h 1.6km/h 9.8km/h
Wind Gust: 30.6km/h - -
Wind- - ESE
Pressure: 1027 hPa 1017.5 hPa -
Precipitation: 0.25 mm    
Historical Graphs
 
 
Tabular Data for February 28, 2012
Time Temperature Dew Point Pressure Wind Wind Speed Wind Gust Humidity Rainfall Rate (Hourly) Conditions
00:00 11 °C 4.9 °C 1026.6 hPa NNE 6.4 km/h 9.7 km/h 66% 0 mm
00:05 11.1 °C 5 °C 1026.6 hPa NE 8 km/h 9.7 km/h 66% 0 mm
00:10 11.2 °C 4.7 °C 1027 hPa NE 8 km/h 8 km/h 64% 0 mm
00:15 11.4 °C 4.9 °C 1027 hPa NNE 4.8 km/h 9.7 km/h 64% 0 mm
00:20 11.3 °C 4.8 °C 1026.6 hPa NE 9.7 km/h 9.7 km/h 64% 0 mm
00:25 11.4 °C 4.6 °C 1027 hPa NE 6.4 km/h 14.5 km/h 63% 0 mm
00:30 11.4 °C 4.7 °C 1027 hPa NE 4.8 km/h 12.9 km/h 63% 0 mm
00:35 11.4 °C 4.6 °C 1026.6 hPa NE 6.4 km/h 11.3 km/h 63% 0 mm
00:37 11.4 °C 4.6 °C 1026.6 hPa NE 6.4 km/h 11.3 km/h 63% 0 mm
00:42 11.3 °C 4.6 °C 1026.6 hPa NNE 6.4 km/h 9.7 km/h 63% 0 mm
00:47 11.3 °C 4.6 °C 1026.6 hPa NE 4.8 km/h 9.7 km/h 63% 0 mm
00:52 11.2 °C 4.4 °C 1027 hPa ENE 4.8 km/h 6.4 km/h 63% 0 mm
00:57 11.1 °C 4.3 °C 1027 hPa NE 4.8 km/h 9.7 km/h 63% 0 mm
01:02 10.9 °C 4.2 °C 1026.6 hPa NNE 6.4 km/h 9.7 km/h 63% 0 mm
01:07 10.9 °C 4.4 °C 1026.6 hPa NE 6.4 km/h 11.3 km/h 64% 0 mm
01:12 10.8 °C 4.3 °C 1026.6 hPa NNE 4.8 km/h 8 km/h 64% 0 mm
01:17 10.7 °C 4.2 °C 1026.6 hPa NE 4.8 km/h 6.4 km/h 64% 0 mm
01:22 10.7 °C 4.2 °C 1026.6 hPa NE 4.8 km/h 8 km/h 64% 0 mm
01:27 10.4 °C 4.2 °C 1026.6 hPa NE 6.4 km/h 6.4 km/h 65% 0 mm
01:32 10.3 °C 4.1 °C 1026.6 hPa NNE 4.8 km/h 6.4 km/h 65% 0 mm
01:37 10.3 °C 4 °C 1027 hPa NNE 8 km/h 9.7 km/h 65% 0 mm
01:42 10.3 °C 4.2 °C 1026.6 hPa NNE 6.4 km/h 9.7 km/h 66% 0 mm
01:47 10.2 °C 4.2 °C 1027 hPa NE 8 km/h 9.7 km/h 66% 0 mm
01:52 10.2 °C 4.2 °C 1026.6 hPa NNE 6.4 km/h 11.3 km/h 66% 0 mm
01:57 10.2 °C 4.2 °C 1026.6 hPa NE 8 km/h 9.7 km/h 66% 0 mm
02:02 10.2 °C 4.1 °C 1026.6 hPa NE 4.8 km/h 11.3 km/h 66% 0 mm
02:07 10.2 °C 4.1 °C 1026.6 hPa NNE 8 km/h 11.3 km/h 66% 0 mm
02:12 10.1 °C 4 °C 1026.6 hPa NNE 6.4 km/h 9.7 km/h 66% 0 mm
02:17 9.9 °C 3.9 °C 1026.6 hPa NNE 4.8 km/h 11.3 km/h 66% 0 mm
02:22 9.9 °C 3.9 °C 1026.6 hPa NE 8 km/h 9.7 km/h 66% 0 mm
02:27 10 °C 3.9 °C 1026.6 hPa NE 6.4 km/h 11.3 km/h 66% 0 mm
02:32 10.1 °C 4 °C 1026.6 hPa NE 6.4 km/h 12.9 km/h 66% 0 mm
02:37 10.1 °C 4 °C 1026.6 hPa NE 8 km/h 11.3 km/h 66% 0 mm
02:42 9.9 °C 3.9 °C 1026.3 hPa NE 6.4 km/h 11.3 km/h 66% 0 mm
02:47 9.9 °C 3.8 °C 1026.3 hPa NE 6.4 km/h 8 km/h 66% 0 mm
02:52 9.7 °C 3.8 °C 1026.3 hPa NE 4.8 km/h 8 km/h 67% 0 mm
02:57 9.6 °C 3.7 °C 1026.3 hPa NE 6.4 km/h 8 km/h 67% 0 mm
03:02 9.4 °C 3.6 °C 1026.3 hPa NE 6.4 km/h 9.7 km/h 67% 0 mm
03:07 9.4 °C 3.6 °C 1026.3 hPa NE 4.8 km/h 9.7 km/h 67% 0 mm
03:12 9.2 °C 3.6 °C 1026 hPa NE 8 km/h 9.7 km/h 68% 0 mm
03:17 9.1 °C 3.4 °C 1026 hPa NNE 4.8 km/h 8 km/h 68% 0 mm
03:22 9.1 °C 3.5 °C 1026 hPa NNE 8 km/h 8 km/h 68% 0 mm
03:27 9.1 °C 3.4 °C 1026 hPa NE 6.4 km/h 9.7 km/h 68% 0 mm
03:32 9 °C 3.4 °C 1025.6 hPa NNE 4.8 km/h 9.7 km/h 68% 0 mm
03:37 8.9 °C 3.5 °C 1025.6 hPa NE 4.8 km/h 8 km/h 69% 0 mm
03:42 8.8 °C 3.4 °C 1025.6 hPa NNE 6.4 km/h 6.4 km/h 69% 0 mm
03:47 8.8 °C 3.4 °C 1025.6 hPa NE 6.4 km/h 8 km/h 69% 0 mm
03:52 8.8 °C 3.4 °C 1025.6 hPa NE 6.4 km/h 9.7 km/h 69% 0 mm
03:57 8.8 °C 3.4 °C 1025.6 hPa NNE 4.8 km/h 9.7 km/h 69% 0 mm
04:03 8.8 °C 3.4 °C 1025.3 hPa NNE 6.4 km/h 11.3 km/h 69% 0 mm
04:08 8.8 °C 3.4 °C 1025.3 hPa NNE 4.8 km/h 9.7 km/h 69% 0 mm
04:13 8.8 °C 3.4 °C 1025.3 hPa NNE 4.8 km/h 8 km/h 69% 0 mm
04:18 8.7 °C 3.3 °C 1025.3 hPa NNE 4.8 km/h 9.7 km/h 69% 0 mm
04:23 8.6 °C 3.4 °C 1025.3 hPa NNE 8 km/h 9.7 km/h 70% 0 mm
04:28 8.6 °C 3.4 °C 1025.3 hPa NE 4.8 km/h 9.7 km/h 70% 0 mm
04:33 8.5 °C 3.3 °C 1025.3 hPa North 6.4 km/h 11.3 km/h 70% 0 mm
04:38 8.4 °C 3.3 °C 1025.3 hPa NNE 4.8 km/h 9.7 km/h 70% 0 mm
04:43 8.3 °C 3.4 °C 1025.3 hPa NNE 4.8 km/h 8 km/h 71% 0 mm
04:48 8.3 °C 3.4 °C 1025.3 hPa NNE 4.8 km/h 8 km/h 71% 0 mm
04:53 8.6 °C 3.4 °C 1024.9 hPa NE 4.8 km/h 11.3 km/h 70% 0 mm
04:58 8.6 °C 3.4 °C 1025.3 hPa NE 8 km/h 9.7 km/h 70% 0 mm
05:03 8.5 °C 3.3 °C 1025.3 hPa NNE 6.4 km/h 8 km/h 70% 0 mm
05:08 8.4 °C 3.5 °C 1025.3 hPa NE 4.8 km/h 8 km/h 71% 0 mm
05:13 8.5 °C 3.6 °C 1025.3 hPa NE 6.4 km/h 9.7 km/h 71% 0 mm
05:18 8.6 °C 3.4 °C 1025.3 hPa NE 3.2 km/h 9.7 km/h 70% 0 mm
05:23 8.6 °C 3.4 °C 1025.3 hPa NE 8 km/h 8 km/h 70% 0 mm
05:28 8.7 °C 3.5 °C 1025.3 hPa NE 8 km/h 11.3 km/h 70% 0 mm
05:33 8.6 °C 3.4 °C 1025.3 hPa NNE 3.2 km/h 8 km/h 70% 0 mm
05:39 8.4 °C 3.5 °C 1025.6 hPa NNE 4.8 km/h 9.7 km/h 71% 0 mm
05:44 8.3 °C 3.3 °C 1025.6 hPa North 1.6 km/h 4.8 km/h 71% 0 mm
05:49 8 °C 3.3 °C 1025.6 hPa NNE 1.6 km/h 3.2 km/h 72% 0 mm
05:54 7.8 °C 3.3 °C 1025.6 hPa NNE 1.6 km/h 3.2 km/h 73% 0 mm
05:59 7.7 °C 3.2 °C 1025.6 hPa NE 3.2 km/h 3.2 km/h 73% 0 mm
06:04 7.7 °C 3.2 °C 1025.6 hPa NNE 3.2 km/h 4.8 km/h 73% 0 mm
06:09 7.7 °C 3.2 °C 1025.6 hPa NNE 4.8 km/h 4.8 km/h 73% 0 mm
06:14 7.7 °C 3.2 °C 1025.6 hPa NE 1.6 km/h 4.8 km/h 73% 0 mm
06:19 7.8 °C 3.3 °C 1025.6 hPa NE 3.2 km/h 6.4 km/h 73% 0 mm
06:24 8 °C 3.4 °C 1025.6 hPa NE 4.8 km/h 8 km/h 73% 0 mm
06:29 8.1 °C 3.3 °C 1026 hPa NNE 3.2 km/h 6.4 km/h 72% 0 mm
06:34 7.9 °C 3.3 °C 1026 hPa NNE 4.8 km/h 4.8 km/h 73% 0 mm
06:39 7.6 °C 3.3 °C 1026 hPa NE 4.8 km/h 4.8 km/h 74% 0 mm
06:44 7.7 °C 3.2 °C 1025.6 hPa NE 4.8 km/h 6.4 km/h 73% 0 mm
06:49 7.8 °C 3.3 °C 1025.6 hPa NE 6.4 km/h 8 km/h 73% 0 mm
06:54 7.9 °C 3.4 °C 1025.6 hPa NE 6.4 km/h 8 km/h 73% 0 mm
06:59 8.1 °C 3.4 °C 1025.6 hPa NE 4.8 km/h 8 km/h 72% 0 mm
07:04 8.2 °C 3.5 °C 1025.6 hPa NNE 8 km/h 9.7 km/h 72% 0 mm
07:09 8.3 °C 3.6 °C 1025.6 hPa NE 4.8 km/h 12.9 km/h 72% 0 mm
07:14 8.3 °C 3.6 °C 1025.6 hPa NE 3.2 km/h 6.4 km/h 72% 0 mm
07:19 8.2 °C 3.5 °C 1025.3 hPa NE 4.8 km/h 9.7 km/h 72% 0 mm
07:24 8.3 °C 3.6 °C 1025.3 hPa NE 8 km/h 11.3 km/h 72% 0 mm
07:29 8.3 °C 3.6 °C 1025.3 hPa NE 3.2 km/h 8 km/h 72% 0 mm
07:34 8.4 °C 3.6 °C 1025.3 hPa East 3.2 km/h 8 km/h 72% 0 mm
07:39 8.4 °C 3.8 °C 1025.3 hPa ENE 4.8 km/h 8 km/h 73% 0 mm
07:44 8.4 °C 3.8 °C 1025.3 hPa East 3.2 km/h 8 km/h 73% 0 mm
07:49 8.4 °C 3.9 °C 1025.3 hPa ENE 4.8 km/h 8 km/h 73% 0 mm
07:54 8.6 °C 4 °C 1025.3 hPa ENE 3.2 km/h 6.4 km/h 73% 0 mm
07:59 8.6 °C 3.8 °C 1025.3 hPa East 4.8 km/h 8 km/h 72% 0 mm
08:04 8.6 °C 4 °C 1025.3 hPa East 6.4 km/h 8 km/h 73% 0 mm
08:09 8.5 °C 3.9 °C 1025.3 hPa East 3.2 km/h 8 km/h 73% 0 mm
08:15 8.6 °C 4.1 °C 1025.6 hPa East 4.8 km/h 6.4 km/h 73% 0 mm
08:20 8.8 °C 4.2 °C 1025.3 hPa ENE 3.2 km/h 8 km/h 73% 0 mm
08:25 9.1 °C 4.3 °C 1025.6 hPa NE 3.2 km/h 4.8 km/h 72% 0 mm
08:30 9.4 °C 4.7 °C 1025.6 hPa ENE 1.6 km/h 6.4 km/h 72% 0 mm
08:35 9.9 °C 4.7 °C 1025.6 hPa East 6.4 km/h 8 km/h 70% 0 mm
08:40 10.3 °C 4.8 °C 1025.6 hPa NE 8 km/h 9.7 km/h 69% 0 mm
08:45 10.6 °C 4.9 °C 1025.6 hPa East 4.8 km/h 8 km/h 68% 0 mm
08:50 10.8 °C 5.2 °C 1025.6 hPa ENE 6.4 km/h 11.3 km/h 68% 0 mm
08:55 10.9 °C 5.5 °C 1025.6 hPa ENE 11.3 km/h 11.3 km/h 69% 0 mm
08:56 10.9 °C 5.3 °C 1025.6 hPa East 8 km/h 11.3 km/h 68% 0 mm
09:01 11 °C 5.3 °C 1025.6 hPa East 4.8 km/h 9.7 km/h 68% 0 mm
09:06 11.1 °C 5.4 °C 1025.6 hPa East 6.4 km/h 8 km/h 68% 0 mm
09:11 11.3 °C 5.6 °C 1025.6 hPa East 6.4 km/h 8 km/h 68% 0 mm
09:16 11.4 °C 5.7 °C 1025.6 hPa NE 6.4 km/h 8 km/h 68% 0 mm
09:21 11.5 °C 5.6 °C 1025.6 hPa ENE 6.4 km/h 9.7 km/h 67% 0 mm
09:26 11.7 °C 6 °C 1025.6 hPa East 3.2 km/h 6.4 km/h 68% 0 mm
09:31 12.2 °C 6 °C 1025.6 hPa ENE 8 km/h 11.3 km/h 66% 0 mm
09:36 12.6 °C 6 °C 1025.3 hPa East 8 km/h 11.3 km/h 64% 0 mm
09:41 12.9 °C 6.8 °C 1025.3 hPa East 6.4 km/h 9.7 km/h 66% 0 mm
09:46 13.4 °C 6.7 °C 1025.3 hPa ESE 6.4 km/h 8 km/h 64% 0 mm
09:51 13.9 °C 7.5 °C 1025.3 hPa ESE 4.8 km/h 6.4 km/h 65% 0 mm
09:56 14.4 °C 7.2 °C 1025.3 hPa ESE 8 km/h 11.3 km/h 62% 0 mm
10:01 14.8 °C 7.8 °C 1025.3 hPa ESE 8 km/h 11.3 km/h 63% 0 mm
10:06 15.1 °C 7.1 °C 1025.6 hPa ESE 14.5 km/h 17.7 km/h 59% 0 mm
10:11 15.2 °C 7.7 °C 1025.3 hPa East 8 km/h 14.5 km/h 61% 0 mm
10:16 15.3 °C 7.9 °C 1025.6 hPa SE 9.7 km/h 14.5 km/h 61% 0 mm
10:21 15.6 °C 7.8 °C 1025.3 hPa SE 8 km/h 14.5 km/h 60% 0 mm
10:26 15.7 °C 7.7 °C 1025.3 hPa ESE 9.7 km/h 12.9 km/h 59% 0 mm
10:31 15.8 °C 8.3 °C 1025.3 hPa ESE 9.7 km/h 14.5 km/h 61% 0 mm
10:36 15.8 °C 8.6 °C 1025.3 hPa SE 6.4 km/h 9.7 km/h 62% 0 mm
10:41 15.8 °C 8.3 °C 1024.9 hPa ESE 8 km/h 16.1 km/h 61% 0 mm
10:46 15.9 °C 8.7 °C 1024.9 hPa East 8 km/h 14.5 km/h 62% 0 mm
10:51 16.2 °C 8.7 °C 1024.9 hPa East 14.5 km/h 14.5 km/h 61% 0 mm
10:56 16.4 °C 9.1 °C 1024.9 hPa ESE 11.3 km/h 24.1 km/h 62% 0 mm
11:01 16.6 °C 9.3 °C 1024.9 hPa ESE 12.9 km/h 17.7 km/h 62% 0 mm
11:06 16.8 °C 9.2 °C 1024.9 hPa ESE 9.7 km/h 16.1 km/h 61% 0 mm
11:11 16.9 °C 9.3 °C 1024.9 hPa SE 14.5 km/h 19.3 km/h 61% 0 mm
11:16 17 °C 9.4 °C 1024.9 hPa SSE 19.3 km/h 20.9 km/h 61% 0 mm
11:21 17.1 °C 9.8 °C 1024.9 hPa South 9.7 km/h 17.7 km/h 62% 0 mm
11:26 17.2 °C 9.9 °C 1024.9 hPa ESE 11.3 km/h 20.9 km/h 62% 0 mm
11:31 17.5 °C 10.4 °C 1024.9 hPa ESE 11.3 km/h 16.1 km/h 63% 0 mm
11:36 17.7 °C 10.6 °C 1024.6 hPa SSE 16.1 km/h 17.7 km/h 63% 0 mm
11:41 17.8 °C 10.7 °C 1024.6 hPa ESE 12.9 km/h 20.9 km/h 63% 0 mm
11:47 18.2 °C 11 °C 1024.6 hPa SSE 14.5 km/h 22.5 km/h 63% 0 mm
11:52 18.2 °C 10.6 °C 1024.6 hPa South 12.9 km/h 19.3 km/h 61% 0 mm
11:57 18.4 °C 11.5 °C 1024.3 hPa SE 11.3 km/h 17.7 km/h 64% 0 mm
12:02 18.7 °C 11.1 °C 1024.3 hPa SSE 16.1 km/h 19.3 km/h 61% 0 mm
12:07 18.7 °C 10.8 °C 1024.3 hPa SE 14.5 km/h 19.3 km/h 60% 0 mm
12:12 18.6 °C 11.2 °C 1023.9 hPa SE 12.9 km/h 17.7 km/h 62% 0 mm
12:17 18.8 °C 11.4 °C 1023.9 hPa ESE 17.7 km/h 24.1 km/h 62% 0 mm
12:22 18.9 °C 11.3 °C 1023.9 hPa ESE 11.3 km/h 20.9 km/h 61% 0 mm
12:27 19.2 °C 11 °C 1023.9 hPa ESE 14.5 km/h 19.3 km/h 59% 0 mm
12:32 19.1 °C 10.9 °C 1023.9 hPa SE 12.9 km/h 19.3 km/h 59% 0 mm
12:37 19.1 °C 10.9 °C 1023.6 hPa ESE 12.9 km/h 16.1 km/h 59% 0 mm
12:42 19 °C 10.6 °C 1023.6 hPa ESE 11.3 km/h 22.5 km/h 58% 0 mm
12:47 18.9 °C 10.7 °C 1023.6 hPa SE 11.3 km/h 22.5 km/h 59% 0 mm
12:52 19 °C 11.1 °C 1023.6 hPa SE 9.7 km/h 20.9 km/h 60% 0 mm
12:57 19.4 °C 11.2 °C 1023.6 hPa SSE 16.1 km/h 22.5 km/h 59% 0 mm
13:02 19.6 °C 11.1 °C 1023.2 hPa ESE 19.3 km/h 20.9 km/h 58% 0 mm
13:07 19.6 °C 11.4 °C 1023.2 hPa ESE 14.5 km/h 20.9 km/h 59% 0 mm
13:12 19.9 °C 11.4 °C 1022.9 hPa SE 14.5 km/h 20.9 km/h 58% 0 mm
13:17 19.9 °C 11.2 °C 1022.9 hPa SSE 19.3 km/h 19.3 km/h 57% 0 mm
13:22 20 °C 11.2 °C 1022.9 hPa SSE 24.1 km/h 24.1 km/h 57% 0 mm
13:27 19.9 °C 11.4 °C 1022.6 hPa SSE 11.3 km/h 17.7 km/h 58% 0 mm
13:32 19.9 °C 11.1 °C 1022.6 hPa SSE 11.3 km/h 16.1 km/h 57% 0 mm
13:37 19.6 °C 10.9 °C 1022.6 hPa SE 16.1 km/h 20.9 km/h 57% 0 mm
13:43 19.5 °C 11 °C 1022.6 hPa SE 12.9 km/h 16.1 km/h 58% 0 mm
13:48 19.7 °C 11.5 °C 1022.6 hPa SSE 16.1 km/h 19.3 km/h 59% 0 mm
13:53 19.7 °C 11.5 °C 1022.2 hPa ESE 22.5 km/h 25.7 km/h 59% 0 mm
13:58 19.9 °C 11.4 °C 1022.2 hPa SE 16.1 km/h 17.7 km/h 58% 0 mm
14:03 20.2 °C 11.4 °C 1022.2 hPa SE 17.7 km/h 19.3 km/h 57% 0 mm
14:08 20.5 °C 12.2 °C 1021.9 hPa South 16.1 km/h 24.1 km/h 59% 0 mm
14:13 20.6 °C 11.6 °C 1021.9 hPa South 12.9 km/h 24.1 km/h 56% 0 mm
14:18 20.4 °C 11.1 °C 1021.9 hPa SSE 8 km/h 17.7 km/h 55% 0 mm
14:23 20.2 °C 11.4 °C 1021.9 hPa SE 14.5 km/h 19.3 km/h 57% 0 mm
14:28 20.1 °C 11 °C 1021.9 hPa SSE 16.1 km/h 20.9 km/h 56% 0 mm
14:33 20.2 °C 11.7 °C 1021.9 hPa SE 9.7 km/h 17.7 km/h 58% 0 mm
14:38 20.2 °C 11.7 °C 1021.9 hPa SSE 17.7 km/h 17.7 km/h 58% 0 mm
14:43 20.3 °C 11.3 °C 1021.9 hPa SE 11.3 km/h 20.9 km/h 56% 0 mm
14:48 20.5 °C 11.2 °C 1021.9 hPa SE 6.4 km/h 19.3 km/h 55% 0 mm
14:53 20.3 °C 11.5 °C 1021.6 hPa SSW 11.3 km/h 16.1 km/h 57% 0 mm
14:58 20.2 °C 11.4 °C 1021.6 hPa SE 9.7 km/h 17.7 km/h 57% 0 mm
15:03 20.2 °C 11.7 °C 1021.6 hPa SE 12.9 km/h 17.7 km/h 58% 0 mm
15:09 20.1 °C 11.3 °C 1021.6 hPa SSE 12.9 km/h 17.7 km/h 57% 0 mm
15:14 20 °C 11.2 °C 1021.6 hPa SE 9.7 km/h 16.1 km/h 57% 0 mm
15:19 19.9 °C 11.2 °C 1021.6 hPa SE 16.1 km/h 19.3 km/h 57% 0 mm
15:24 19.9 °C 11.2 °C 1021.2 hPa ESE 11.3 km/h 20.9 km/h 57% 0 mm
15:29 20.1 °C 11.6 °C 1021.2 hPa ESE 20.9 km/h 22.5 km/h 58% 0 mm
15:34 20.3 °C 12 °C 1021.2 hPa SSE 11.3 km/h 19.3 km/h 59% 0 mm
15:39 20.2 °C 11.4 °C 1020.9 hPa SE 12.9 km/h 20.9 km/h 57% 0 mm
15:44 20.1 °C 11.3 °C 1020.9 hPa SE 12.9 km/h 22.5 km/h 57% 0 mm
15:49 20.2 °C 11.7 °C 1020.9 hPa SE 12.9 km/h 25.7 km/h 58% 0 mm
15:54 19.9 °C 11.4 °C 1020.5 hPa SE 12.9 km/h 22.5 km/h 58% 0 mm
15:59 20.2 °C 11.7 °C 1020.5 hPa SE 8 km/h 20.9 km/h 58% 0 mm
16:04 20 °C 11.8 °C 1020.5 hPa ESE 11.3 km/h 17.7 km/h 59% 0 mm
16:09 19.9 °C 11.9 °C 1020.5 hPa SE 17.7 km/h 19.3 km/h 60% 0 mm
16:14 19.8 °C 11.8 °C 1020.5 hPa SE 14.5 km/h 20.9 km/h 60% 0 mm
16:19 19.8 °C 11.8 °C 1020.5 hPa SE 6.4 km/h 20.9 km/h 60% 0 mm
16:24 19.8 °C 11.6 °C 1020.5 hPa SE 9.7 km/h 20.9 km/h 59% 0 mm
16:29 19.8 °C 11.8 °C 1020.5 hPa SE 14.5 km/h 14.5 km/h 60% 0 mm
16:34 19.7 °C 11.7 °C 1020.2 hPa ESE 12.9 km/h 17.7 km/h 60% 0 mm
16:39 19.6 °C 11.9 °C 1020.2 hPa SSE 6.4 km/h 19.3 km/h 61% 0 mm
16:44 19.6 °C 11.8 °C 1020.2 hPa SSE 14.5 km/h 20.9 km/h 61% 0 mm
16:49 19.4 °C 11.7 °C 1020.2 hPa SE 9.7 km/h 22.5 km/h 61% 0 mm
16:54 19.3 °C 11.6 °C 1020.2 hPa SE 22.5 km/h 22.5 km/h 61% 0 mm
16:59 19.3 °C 11.8 °C 1020.2 hPa SE 14.5 km/h 20.9 km/h 62% 0 mm
17:04 19.2 °C 12.3 °C 1020.2 hPa SE 9.7 km/h 19.3 km/h 64% 0 mm
17:09 19.1 °C 11.9 °C 1020.2 hPa SE 19.3 km/h 19.3 km/h 63% 0 mm
17:14 19.1 °C 12.2 °C 1020.2 hPa SE 11.3 km/h 24.1 km/h 64% 0 mm
17:19 19 °C 12.5 °C 1020.2 hPa SSE 14.5 km/h 17.7 km/h 66% 0 mm
17:24 18.9 °C 12.4 °C 1019.9 hPa SE 9.7 km/h 16.1 km/h 66% 0 mm
17:29 18.8 °C 12.6 °C 1019.9 hPa SE 14.5 km/h 19.3 km/h 67% 0 mm
17:34 18.8 °C 13 °C 1019.9 hPa SE 9.7 km/h 19.3 km/h 69% 0 mm
17:39 18.7 °C 12.9 °C 1019.9 hPa ESE 8 km/h 20.9 km/h 69% 0 mm
17:44 18.6 °C 13 °C 1019.9 hPa ESE 12.9 km/h 22.5 km/h 70% 0 mm
17:49 18.4 °C 13.1 °C 1019.9 hPa SE 11.3 km/h 22.5 km/h 71% 0 mm
17:54 18.3 °C 13.2 °C 1020.2 hPa SSE 11.3 km/h 17.7 km/h 72% 0 mm
17:59 18.2 °C 13.3 °C 1020.2 hPa SSE 17.7 km/h 25.7 km/h 73% 0 mm
18:04 18.2 °C 13.3 °C 1019.9 hPa SE 9.7 km/h 20.9 km/h 73% 0 mm
18:09 18.1 °C 13.2 °C 1019.9 hPa SSE 11.3 km/h 22.5 km/h 73% 0 mm
18:15 18 °C 13.3 °C 1019.5 hPa SSE 17.7 km/h 22.5 km/h 74% 0 mm
18:20 17.9 °C 13.2 °C 1019.5 hPa ESE 8 km/h 16.1 km/h 74% 0 mm
18:25 17.8 °C 13.3 °C 1019.5 hPa SSE 12.9 km/h 20.9 km/h 75% 0 mm
18:30 17.7 °C 13.2 °C 1019.2 hPa SE 16.1 km/h 19.3 km/h 75% 0 mm
18:35 17.5 °C 13.2 °C 1019.5 hPa SSE 6.4 km/h 16.1 km/h 76% 0 mm
18:36 17.5 °C 13.2 °C 1019.5 hPa SSE 9.7 km/h 16.1 km/h 76% 0 mm
18:41 17.4 °C 13.5 °C 1019.5 hPa ESE 12.9 km/h 24.1 km/h 78% 0 mm
18:46 17.2 °C 13.7 °C 1019.5 hPa ESE 19.3 km/h 24.1 km/h 80% 0 mm
18:51 17.1 °C 14 °C 1019.5 hPa SSE 25.7 km/h 27.4 km/h 82% 0 mm
18:56 17 °C 13.9 °C 1019.5 hPa SE 19.3 km/h 24.1 km/h 82% 0 mm
19:01 16.9 °C 13.8 °C 1019.9 hPa SSE 12.9 km/h 16.1 km/h 82% 0 mm
19:06 16.9 °C 13.8 °C 1019.9 hPa SSE 24.1 km/h 24.1 km/h 82% 0 mm
19:11 16.8 °C 13.7 °C 1019.9 hPa SSE 14.5 km/h 24.1 km/h 82% 0 mm
19:16 16.7 °C 13.8 °C 1019.9 hPa SSE 12.9 km/h 16.1 km/h 83% 0 mm
19:21 16.6 °C 13.9 °C 1020.2 hPa SSE 27.4 km/h 30.6 km/h 84% 0 mm
19:26 16.6 °C 13.8 °C 1020.2 hPa SSE 9.7 km/h 19.3 km/h 84% 0 mm
19:31 16.3 °C 13.9 °C 1020.2 hPa South 19.3 km/h 22.5 km/h 86% 0 mm
19:36 16 °C 13.8 °C 1020.2 hPa South 14.5 km/h 22.5 km/h 87% 0 mm
19:41 15.7 °C 13.9 °C 1020.2 hPa SE 14.5 km/h 20.9 km/h 89% 0 mm
19:46 15.5 °C 13.9 °C 1020.2 hPa SSE 11.3 km/h 16.1 km/h 90% 0 mm
19:52 15.3 °C 13.8 °C 1020.2 hPa SSE 11.3 km/h 20.9 km/h 91% 0 mm
19:57 15.1 °C 13.8 °C 1020.2 hPa SE 16.1 km/h 16.1 km/h 92% 0 mm
20:02 14.9 °C 13.8 °C 1019.9 hPa SE 6.4 km/h 16.1 km/h 93% 0 mm
20:07 14.8 °C 13.7 °C 1019.9 hPa SE 8 km/h 14.5 km/h 93% 0 mm
20:12 14.8 °C 13.8 °C 1019.9 hPa SE 8 km/h 11.3 km/h 94% 0 mm
20:17 14.8 °C 13.8 °C 1019.9 hPa SE 8 km/h 14.5 km/h 94% 0 mm
20:22 14.7 °C 13.8 °C 1019.9 hPa SE 6.4 km/h 12.9 km/h 94% 0 mm
20:27 14.7 °C 13.8 °C 1019.9 hPa SE 8 km/h 12.9 km/h 94% 0 mm
20:32 14.7 °C 13.8 °C 1019.5 hPa SSE 11.3 km/h 12.9 km/h 94% 0 mm
20:37 14.7 °C 13.8 °C 1019.5 hPa SSE 9.7 km/h 14.5 km/h 94% 0 mm
20:42 14.7 °C 13.8 °C 1019.5 hPa South 14.5 km/h 16.1 km/h 94% 0 mm
20:48 14.8 °C 13.8 °C 1019.5 hPa SE 11.3 km/h 14.5 km/h 94% 0 mm
20:53 14.8 °C 13.8 °C 1019.5 hPa ESE 11.3 km/h 16.1 km/h 94% 0 mm
20:58 14.8 °C 13.8 °C 1019.5 hPa SE 9.7 km/h 14.5 km/h 94% 0 mm
21:03 14.8 °C 13.8 °C 1019.5 hPa SSE 11.3 km/h 16.1 km/h 94% 0 mm
21:08 14.8 °C 14 °C 1019.2 hPa SSE 8 km/h 16.1 km/h 95% 0 mm
21:13 14.8 °C 14.1 °C 1019.2 hPa SSE 9.7 km/h 16.1 km/h 95% 0 mm
21:18 14.8 °C 14.1 °C 1019.2 hPa SE 9.7 km/h 19.3 km/h 95% 0 mm
21:23 14.8 °C 14.1 °C 1019.2 hPa SE 11.3 km/h 14.5 km/h 95% 0 mm
21:28 14.8 °C 14.1 °C 1019.5 hPa SSE 8 km/h 14.5 km/h 95% 0 mm
21:33 14.9 °C 14.1 °C 1019.5 hPa SSE 12.9 km/h 17.7 km/h 95% 0 mm
21:38 14.9 °C 14.1 °C 1019.2 hPa SE 9.7 km/h 16.1 km/h 95% 0 mm
21:43 14.9 °C 14.1 °C 1019.2 hPa SE 14.5 km/h 22.5 km/h 95% 0 mm
21:48 14.9 °C 14.1 °C 1019.2 hPa SE 9.7 km/h 17.7 km/h 95% 0 mm
21:53 14.9 °C 14.1 °C 1019.2 hPa SSE 12.9 km/h 16.1 km/h 95% 0 mm
21:58 14.9 °C 14.1 °C 1018.8 hPa ESE 11.3 km/h 24.1 km/h 95% 0 mm
22:03 14.9 °C 14.1 °C 1019.2 hPa SE 9.7 km/h 16.1 km/h 95% 0 mm
22:08 14.9 °C 14.2 °C 1018.8 hPa SE 9.7 km/h 24.1 km/h 95% 0 mm
22:13 14.9 °C 14.2 °C 1019.2 hPa SE 11.3 km/h 17.7 km/h 95% 0 mm
22:18 14.9 °C 14.2 °C 1018.8 hPa SSE 9.7 km/h 17.7 km/h 95% 0 mm
22:24 15 °C 14.2 °C 1018.8 hPa SE 8 km/h 19.3 km/h 95% 0 mm
22:29 15 °C 14.2 °C 1018.8 hPa SSE 12.9 km/h 19.3 km/h 95% 0 mm
22:34 15 °C 14.2 °C 1018.5 hPa SSE 11.3 km/h 20.9 km/h 95% 0 mm
22:39 15.1 °C 14.3 °C 1018.5 hPa SE 11.3 km/h 17.7 km/h 95% 0 mm
22:44 15.1 °C 14.3 °C 1018.5 hPa SE 12.9 km/h 16.1 km/h 95% 0 mm
22:49 15.1 °C 14.3 °C 1018.5 hPa ESE 14.5 km/h 17.7 km/h 95% 0 mm
22:54 15.1 °C 14.3 °C 1018.5 hPa SE 14.5 km/h 19.3 km/h 95% 0 mm
22:59 15.2 °C 14.4 °C 1018.5 hPa SSE 14.5 km/h 14.5 km/h 95% 0 mm
23:04 15.2 °C 14.4 °C 1018.5 hPa SSE 19.3 km/h 22.5 km/h 95% 0 mm
23:09 15.3 °C 14.5 °C 1018.5 hPa SSE 11.3 km/h 20.9 km/h 95% 0 mm
23:15 15.3 °C 14.6 °C 1018.5 hPa SSE 6.4 km/h 20.9 km/h 95% 0 mm
23:20 15.3 °C 14.6 °C 1018.5 hPa SSE 11.3 km/h 22.5 km/h 95% 0 mm
23:25 15.4 °C 14.6 °C 1018.2 hPa SSE 20.9 km/h 20.9 km/h 95% 0 mm
23:30 15.4 °C 14.7 °C 1018.2 hPa SSE 22.5 km/h 27.4 km/h 95% 0 mm
23:35 15.5 °C 14.7 °C 1017.8 hPa SSE 14.5 km/h 22.5 km/h 95% 0 mm
23:40 15.5 °C 14.7 °C 1017.8 hPa SE 17.7 km/h 25.7 km/h 95% 0 mm
23:45 15.6 °C 14.8 °C 1017.5 hPa SE 17.7 km/h 27.4 km/h 95% 0 mm
23:50 15.6 °C 14.8 °C 1017.8 hPa SE 16.1 km/h 24.1 km/h 95% 0 mm
23:55 15.6 °C 14.8 °C 1017.5 hPa SSE 11.3 km/h 19.3 km/h 95% 0 mm
Compliments of Weather Underground